FENGYUN 1C DEB

Satellite information

Favourite Embed

Satellite Type and Status

DEBRISIN ORBIT

Key statistics

Satellite FENGYUN 1C DEB at a glance.

Uptime

9662

Days in orbit

Revolutions

≈ 14.1

Per day

Orbit

SSO

Sun Synchronous Orbit

Inclination

98.7

Latest

Satellite identification and parameters

Extended collection of information and parameters for FENGYUN 1C DEB.

Object identification

Identified? True

Debris? True

Object name: FENGYUN 1C DEB

International designator: 1999-025AVG

Object number (NORAD): 30822

Object ID (CCSDS): 30822

Country: PEOPLES REPUBLIC OF CHINA (PRC)

Current information (Y/N): Y

RCS size: SMALL

Orbital parameters

Period: 102.038 minutes

Inclination: 98.7422 deg

SMA: 7233.255 km

Apoapsis: 909.447 km

Periapsis: 800.793 km

RAAN: 323.7708 deg

Eccentricy: 0.00751071

Argument of periapsis: 74.5438 deg

Mean anomaly: 344.8162 deg

Mean motion: 14.11243894 rev/day

Mean motion (dot): 0.00000994 rev/day2

B* drag term: 0.00055890197 1/REarth

Two-line elements (TLE)

Creation date: Oct. 21, 2025, 6:24 p.m.

Reference frame: TEME

Reference center: EARTH

Epoch: Oct. 21, 2025, 7:29 a.m. UTC

TLE line 0: 0 FENGYUN 1C DEB

TLE line 1: 1 30822U 99025AVG 25294.31213054 .00000994 00000-0 55890-3 0 9993

TLE line 2: 2 30822 98.7422 323.7708 0075107 74.5438 344.8162 14.11243894959626

Live tracking on map

Real-time ground track for satellite FENGYUN 1C DEB.

In-orbit conjunctions

A list of the most updated potential collisions computed for object FENGYUN 1C DEB.

Target Orbit TCA Probability of collision Miss distance Type
SL-16 DEB LEO 2024-11-14 02:33:51 0.0002205925 419.0 (m) DEBRIS
COSMOS 1275 DEB LEO 2024-11-12 12:39:39 0.0001781991 659.0 (m) DEBRIS

Associated space launch

Chinese polar orbiting meteorological satellite

FENGYUN 1C DEB was lifted into orbit during the mission ‘Long March 4B | Feng Yun 1C’, on board a Long March 4B space rocket.

The launch took place on May 10, 1999, 1:33 a.m. from Launch Complex 7.

For more information about the launch, click the button.

Launch to space Long March 4B | Feng Yun 1C
Long March 4B | Feng Yun 1C

Agency: N/A

Status: Launch Successful

Launch date: May 10, 1999, 1:33 a.m. UTC

Rocket: Long March 4B

Launch pad: Launch Complex 7

Location: Taiyuan Satellite Launch Center, People's Republic of China

...

Latest news about this satellite

There are no fresh news available about this satellite. Check back as we update our databases every day.


Newsletter sign-up

Weekly statistics, charts and insights to help you stay on top of the space industry.